Powrót do katalogu

STARLINK-32301

AktywnyŁącznośćVLEO
NORAD 61664·PAYLOAD·🇺🇸 United States

Wystrzelony Oct 26, 2024 z Cape Canaveral Space Force Station

Loading…

Następne Przeloty (najbliższe 24 godziny)

TLE

ŚwieżeSource: CelesTrak SupGP

Epoka: Sep 14, 2026, 22:52 UTC

1 61664C 24193D   26257.95326389  .00052425  00000+0  16865-2 0  2571
2 61664  53.1582 290.6776 0001195  82.2343 182.9221 15.31664364    19

Śledź STARLINK-32301 w czasie rzeczywistym z AllMySat

Download on the App Store